FW8685 Weather Reports


time (UTC)temp
C
wind
direction
speed
KPH
gust
KPH
rain 1hr
cm
rain 24hr
cm
rain mn
cm
humidity
%
barometer
mb
20260905150524 33 138 14.5 20.9 0.00 0.00 0.00 51 1012.1
20260905150046 33 147 11.3 20.9 0.00 0.00 0.00 52 1012.2
20260905145525 32 133 11.3 20.9 0.00 0.00 0.00 52 1012.1
20260905145024 32 122 11.3 19.3 0.00 0.00 0.00 54 1011.9
20260905144548 32 135 9.7 17.7 0.00 0.00 0.00 56 1011.9
20260905144023 31 138 6.4 19.3 0.00 0.00 0.00 57 1011.7
20260905143525 31 150 8.0 19.3 0.00 0.00 0.00 58 1011.7
20260905143045 31 126 9.7 17.7 0.00 0.00 0.00 59 1011.7
20260905142528 30 133 12.9 17.7 0.00 0.00 0.00 60 1011.7
20260905142026 30 97 9.7 14.5 0.00 0.00 0.00 61 1011.6
20260905141554 30 126 8.0 14.5 0.00 0.00 0.00 63 1011.6
20260905141023 29 128 4.8 12.9 0.00 0.00 0.00 64 1011.7
20260905140524 28 112 6.4 12.9 0.00 0.00 0.00 64 1011.6
20260905140044 28 117 6.4 12.9 0.00 0.00 0.00 65 1011.7
20260905135525 28 115 6.4 12.9 0.00 0.00 0.00 67 1011.7
20260905135023 27 117 9.7 12.9 0.00 0.00 0.00 69 1011.7
20260905134544 27 140 6.4 12.9 0.00 0.00 0.00 70 1011.8
20260905134026 27 113 6.4 12.9 0.00 0.00 0.00 71 1011.7
20260905133525 26 129 4.8 12.9 0.00 0.00 0.00 72 1011.5
20260905133046 26 106 6.4 14.5 0.00 0.00 0.00 74 1011.5
20260905132525 25 107 9.7 14.5 0.00 0.00 0.00 75 1011.5
20260905132024 25 115 8.0 12.9 0.00 0.00 0.00 77 1011.5
20260905131558 25 112 6.4 12.9 0.00 0.00 0.00 78 1011.4
20260905131024 24 120 6.4 11.3 0.00 0.00 0.00 80 1011.4
20260905130523 23 115 6.4 11.3 0.00 0.00 0.00 80 1011.3
20260905130048 23 96 6.4 11.3 0.00 0.00 0.00 81 1011.2
20260905125526 23 92 6.4 11.3 0.00 0.00 0.00 82 1011.2
20260905125028 23 106 4.8 11.3 0.00 0.00 0.00 83 1011.2
20260905124547 22 96 3.2 9.7 0.00 0.00 0.00 84 1011.2
20260905124028 22 105 3.2 6.4 0.00 0.00 0.00 84 1011.2
20260905123524 22 111 3.2 6.4 0.00 0.00 0.00 83 1011.2
20260905123045 22 109 3.2 6.4 0.00 0.00 0.00 83 1011.2
20260905122525 22 113 4.8 6.4 0.00 0.00 0.00 83 1011.1
20260905122024 22 107 4.8 6.4 0.00 0.00 0.00 83 1010.9
20260905121544 22 115 3.2 6.4 0.00 0.00 0.00 82 1011.0
20260905121024 22 116 3.2 6.4 0.00 0.00 0.00 82 1010.9
20260905120527 22 113 3.2 6.4 0.00 0.00 0.00 82 1011.0
20260905120123 22 101 3.2 6.4 0.00 0.00 0.00 81 1010.8
20260905115528 22 109 3.2 6.4 0.00 0.00 0.00 81 1010.7
20260905115025 22 111 3.2 6.4 0.00 0.00 0.00 81 1010.7
20260905114546 22 103 3.2 6.4 0.00 0.00 0.00 80 1010.6
20260905114024 22 103 3.2 6.4 0.00 0.00 0.00 81 1010.6
20260905113524 22 101 4.8 6.4 0.00 0.00 0.00 80 1010.6
20260905113045 23 109 3.2 6.4 0.00 0.00 0.00 81 1010.6
20260905112524 23 103 3.2 6.4 0.00 0.00 0.00 81 1010.7
20260905112026 23 103 3.2 6.4 0.00 0.00 0.00 81 1010.7
20260905111602 23 103 3.2 6.4 0.00 0.00 0.00 81 1010.6
20260905111025 23 93 4.8 6.4 0.00 0.00 0.00 81 1010.6
20260905110524 23 96 3.2 6.4 0.00 0.00 0.00 80 1010.6
20260905110051 23 104 4.8 6.4 0.00 0.00 0.00 80 1010.6
20260905105524 23 117 3.2 6.4 0.00 0.00 0.00 80 1010.6
20260905105023 23 117 3.2 6.4 0.00 0.00 0.00 79 1010.6
20260905104545 23 117 3.2 4.8 0.00 0.00 0.00 79 1010.6
20260905104024 23 117 3.2 6.4 0.00 0.00 0.00 78 1010.7
20260905103527 23 117 3.2 6.4 0.00 0.00 0.00 77 1010.6
20260905103047 23 117 3.2 6.4 0.00 0.00 0.00 77 1010.6
20260905102525 23 113 3.2 4.8 0.00 0.00 0.00 77 1010.7
20260905102024 23 113 3.2 4.8 0.00 0.00 0.00 77 1010.9
20260905101548 23 100 3.2 6.4 0.00 0.00 0.00 77 1010.9
20260905101024 23 100 3.2 6.4 0.00 0.00 0.00 78 1010.7
20260905100529 23 99 3.2 6.4 0.00 0.00 0.00 77 1010.8
20260905100046 23 106 3.2 6.4 0.00 0.00 0.00 77 1010.9
20260905095524 23 106 3.2 6.4 0.00 0.00 0.00 77 1010.9
20260905095024 23 106 3.2 6.4 0.00 0.00 0.00 77 1010.9
20260905094546 24 107 3.2 6.4 0.00 0.00 0.00 77 1010.9
20260905094027 24 94 3.2 6.4 0.00 0.00 0.00 76 1011.0
20260905093525 24 106 3.2 4.8 0.00 0.00 0.00 75 1011.0
20260905093044 24 106 1.6 4.8 0.00 0.00 0.00 75 1011.1
20260905092525 24 106 3.2 4.8 0.00 0.00 0.00 75 1011.0
20260905092028 24 106 3.2 6.4 0.00 0.00 0.00 75 1011.0
20260905091546 24 103 3.2 6.4 0.00 0.00 0.00 75 1011.1
20260905091025 25 105 3.2 6.4 0.00 0.00 0.00 75 1011.1
20260905090529 25 105 3.2 4.8 0.00 0.00 0.00 75 1011.1
20260905090045 25 105 3.2 4.8 0.00 0.00 0.00 75 1011.0
20260905085525 25 105 3.2 4.8 0.00 0.00 0.00 74 1011.0
20260905085024 25 105 1.6 3.2 0.00 0.00 0.00 74 1011.0
20260905084544 25 105 1.6 4.8 0.00 0.00 0.00 74 1011.0
20260905084024 25 105 1.6 4.8 0.00 0.00 0.00 74 1011.0
20260905083527 25 105 3.2 4.8 0.00 0.00 0.00 74 1011.0
20260905083042 25 106 3.2 4.8 0.00 0.00 0.00 73 1011.0
20260905082525 25 119 3.2 4.8 0.00 0.00 0.00 73 1010.8
20260905082027 25 119 3.2 4.8 0.00 0.00 0.00 73 1010.9
20260905081546 25 119 3.2 6.4 0.00 0.00 0.00 72 1010.9
20260905081025 25 119 3.2 9.7 0.00 0.00 0.00 72 1010.9
20260905080525 25 128 3.2 9.7 0.00 0.00 0.00 72 1010.9
20260905080046 25 121 3.2 6.4 0.00 0.00 0.00 71 1011.0
20260905075523 25 121 3.2 6.4 0.00 0.00 0.00 71 1010.9
20260905075023 25 117 4.8 6.4 0.00 0.00 0.00 71 1010.9
20260905074551 25 119 3.2 6.4 0.00 0.00 0.00 70 1011.0
20260905074023 26 106 3.2 6.4 0.00 0.00 0.00 70 1010.8
20260905073526 26 111 3.2 6.4 0.00 0.00 0.00 70 1010.8
20260905073059 26 114 3.2 9.7 0.00 0.00 0.00 69 1010.8
20260905072524 26 120 4.8 9.7 0.00 0.00 0.00 70 1010.8
20260905072023 26 111 6.4 9.7 0.00 0.00 0.00 70 1010.7
20260905071547 26 115 4.8 11.3 0.00 0.00 0.00 69 1010.7
20260905071023 26 105 6.4 11.3 0.00 0.00 0.00 69 1010.6
20260905070524 26 117 6.4 11.3 0.00 0.00 0.00 69 1010.6
20260905070045 26 101 6.4 12.9 0.00 0.00 0.00 69 1010.7
20260905065524 26 115 8.0 12.9 0.00 0.00 0.00 69 1010.6
20260905065027 26 110 8.0 12.9 0.00 0.00 0.00 69 1010.6
20260905064543 26 105 8.0 12.9 0.00 0.00 0.00 69 1010.5
20260905064024 26 101 8.0 14.5 0.00 0.00 0.00 69 1010.5
20260905063525 26 113 8.0 14.5 0.00 0.00 0.00 69 1010.6
20260905063047 26 94 9.7 16.1 0.00 0.00 0.00 69 1010.4
20260905062528 26 117 9.7 16.1 0.00 0.00 0.00 69 1010.4
20260905062024 26 109 9.7 14.5 0.00 0.00 0.00 69 1010.3
20260905061546 26 114 9.7 14.5 0.00 0.00 0.00 69 1010.3
20260905061024 26 112 9.7 14.5 0.00 0.00 0.00 69 1010.4
20260905060524 26 105 9.7 14.5 0.00 0.00 0.00 69 1010.3
20260905060045 26 103 9.7 14.5 0.00 0.00 0.00 69 1010.2
20260905055523 26 94 9.7 14.5 0.00 0.00 0.00 69 1010.2
20260905055023 26 92 9.7 12.9 0.00 0.00 0.00 69 1010.2
20260905054547 27 97 8.0 12.9 0.00 0.00 0.00 69 1010.3
20260905054024 27 93 9.7 14.5 0.00 0.00 0.00 68 1010.3
20260905053524 27 98 8.0 14.5 0.00 0.00 0.00 68 1010.3
20260905053057 27 101 8.0 16.1 0.00 0.00 0.00 68 1010.4
20260905052524 27 92 8.0 16.1 0.00 0.00 0.00 68 1010.4
20260905052024 27 99 9.7 16.1 0.00 0.00 0.00 68 1010.4
20260905051546 27 99 9.7 14.5 0.00 0.00 0.00 68 1010.4
20260905051024 27 94 9.7 12.9 0.00 0.00 0.00 68 1010.6
20260905050524 27 97 8.0 12.9 0.00 0.00 0.00 67 1010.5
20260905050046 27 94 8.0 12.9 0.00 0.00 0.00 67 1010.7
20260905045523 27 97 6.4 12.9 0.00 0.00 0.00 67 1010.8
20260905045023 27 95 6.4 12.9 0.00 0.00 0.00 66 1010.8
20260905044545 27 98 6.4 12.9 0.00 0.00 0.00 66 1010.8
20260905044024 27 102 6.4 12.9 0.00 0.00 0.00 66 1010.8
20260905043525 27 96 6.4 12.9 0.00 0.00 0.00 66 1010.8
20260905043048 27 95 8.0 16.1 0.00 0.00 0.00 65 1010.7
20260905042525 28 89 8.0 16.1 0.00 0.00 0.00 65 1010.8
20260905042024 28 98 9.7 16.1 0.00 0.00 0.00 65 1010.9
20260905041547 28 97 9.7 16.1 0.00 0.00 0.00 65 1010.8
20260905041025 28 97 9.7 16.1 0.00 0.00 0.00 65 1010.8
20260905040523 28 101 9.7 12.9 0.00 0.00 0.00 65 1010.8
20260905040046 28 84 6.4 11.3 0.00 0.00 0.00 64 1010.8
20260905035523 28 99 6.4 11.3 0.00 0.00 0.00 64 1011.0
20260905035024 28 95 6.4 11.3 0.00 0.00 0.00 63 1010.9
20260905034543 28 96 4.8 11.3 0.00 0.00 0.00 63 1010.9
20260905034024 28 98 6.4 12.9 0.00 0.00 0.00 62 1011.0
20260905033526 28 104 8.0 12.9 0.00 0.00 0.00 62 1011.0
20260905033055 28 99 8.0 12.9 0.00 0.00 0.00 62 1010.9
20260905032524 29 91 6.4 12.9 0.00 0.00 0.00 61 1011.0
20260905032025 29 101 8.0 12.9 0.00 0.00 0.00 61 1011.0
20260905031547 29 99 8.0 14.5 0.00 0.00 0.00 60 1011.0
20260905031024 29 101 9.7 14.5 0.00 0.00 0.00 60 1010.9
20260905030525 30 99 8.0 14.5 0.00 0.00 0.00 60 1010.8
20260905030047 30 93 6.4 12.9 0.00 0.00 0.00 59 1010.7
20260905025526 30 99 8.0 12.9 0.00 0.00 0.00 59 1010.7
20260905025026 30 81 6.4 12.9 0.00 0.00 0.00 59 1010.7
20260905024541 30 81 6.4 14.5 0.00 0.00 0.00 59 1010.6
20260905024026 30 85 8.0 14.5 0.00 0.00 0.00 58 1010.6
20260905023524 30 82 8.0 12.9 0.00 0.00 0.00 58 1010.6
20260905023047 30 91 6.4 12.9 0.00 0.00 0.00 58 1010.4
20260905022524 30 78 8.0 11.3 0.00 0.00 0.00 58 1010.4
20260905022025 30 81 6.4 12.9 0.00 0.00 0.00 58 1010.2
20260905021546 30 86 8.0 12.9 0.00 0.00 0.00 58 1010.2
20260905021024 30 84 6.4 12.9 0.00 0.00 0.00 58 1010.1
20260905020525 30 90 8.0 12.9 0.00 0.00 0.00 57 1009.9
20260905020043 30 84 6.4 11.3 0.00 0.00 0.00 57 1009.7
20260905015524 31 86 4.8 9.7 0.00 0.00 0.00 56 1009.6
20260905015028 31 90 4.8 9.7 0.00 0.00 0.00 56 1009.6
20260905014548 31 87 4.8 9.7 0.00 0.00 0.00 56 1009.4
20260905014024 31 84 4.8 9.7 0.00 0.00 0.00 56 1009.4
20260905013524 31 86 4.8 9.7 0.00 0.00 0.00 55 1009.3
20260905013047 31 90 6.4 9.7 0.00 0.00 0.00 55 1009.4
20260905012524 31 96 6.4 9.7 0.00 0.00 0.00 54 1009.3
20260905012024 31 94 4.8 9.7 0.00 0.00 0.00 55 1009.3
20260905011544 31 93 4.8 9.7 0.00 0.00 0.00 54 1009.2
20260905011024 32 110 6.4 11.3 0.00 0.00 0.00 53 1009.1
20260905010526 32 106 4.8 11.3 0.00 0.00 0.00 52 1009.2
20260905010042 32 105 6.4 12.9 0.00 0.00 0.00 51 1009.2
20260905005525 33 111 6.4 14.5 0.00 0.00 0.00 50 1009.2
20260905005024 33 97 8.0 14.5 0.00 0.00 0.00 49 1009.1
20260905004551 33 360 9.7 16.1 0.00 0.00 0.00 49 1009.0
20260905004023 33 105 9.7 16.1 0.00 0.00 0.00 48 1009.1
20260905003527 34 110 11.3 16.1 0.00 0.00 0.00 47 1009.1
20260905003044 34 95 11.3 17.7 0.00 0.00 0.00 47 1009.1
20260905002524 35 108 9.7 17.7 0.00 0.00 0.00 47 1009.1
20260905002023 35 102 9.7 16.1 0.00 0.00 0.00 46 1009.1
20260905001544 35 101 9.7 17.7 0.00 0.00 0.00 46 1009.0
20260905001024 35 103 11.3 17.7 0.00 0.00 0.00 45 1009.0
20260905000525 35 123 11.3 17.7 0.00 0.00 0.00 45 1009.1
20260905000047 35 115 6.4 22.5 0.00 0.00 0.00 45 1009.1
20260904235526 36 109 11.3 22.5 0.00 0.00 0.00 44 1009.1
20260904235023 36 119 12.9 19.3 0.00 0.00 0.00 43 1009.1
20260904234547 36 110 14.5 24.1 0.00 0.00 0.00 43 1009.1
20260904234026 36 108 14.5 24.1 0.00 0.00 0.00 43 1009.1
20260904233524 36 108 14.5 22.5 0.00 0.00 0.00 43 1009.1
20260904233050 36 136 12.9 20.9 0.00 0.00 0.00 43 1009.1
20260904232526 36 107 14.5 22.5 0.00 0.00 0.00 42 1009.0
20260904232026 36 101 12.9 27.4 0.00 0.00 0.00 42 1008.9
20260904231544 36 90 16.1 27.4 0.00 0.00 0.00 42 1009.0
20260904231023 36 86 9.7 20.9 0.00 0.00 0.00 43 1009.1
20260904230522 37 110 11.3 24.1 0.00 0.00 0.00 42 1009.0
20260904230043 37 109 16.1 25.7 0.00 0.00 0.00 41 1009.1
20260904225525 37 111 16.1 25.7 0.00 0.00 0.00 42 1009.1
20260904225025 37 125 12.9 25.7 0.00 0.00 0.00 41 1009.1
20260904224601 37 136 17.7 25.7 0.00 0.00 0.00 41 1009.1
20260904224024 37 115 12.9 27.4 0.00 0.00 0.00 42 1009.0
20260904223524 37 101 14.5 33.8 0.00 0.00 0.00 41 1009.1
20260904223048 37 97 20.9 33.8 0.00 0.00 0.00 42 1009.1
20260904222523 37 119 11.3 25.7 0.00 0.00 0.00 42 1009.0
20260904222021 37 122 16.1 25.7 0.00 0.00 0.00 41 1009.0
20260904221548 37 145 11.3 30.6 0.00 0.00 0.00 40 1009.1
20260904221023 37 123 19.3 30.6 0.00 0.00 0.00 40 1009.2
20260904220531 37 130 12.9 32.2 0.00 0.00 0.00 41 1009.1
20260904220044 37 123 19.3 32.2 0.00 0.00 0.00 41 1009.1
20260904215524 37 87 14.5 30.6 0.00 0.00 0.00 41 1009.1
20260904215025 37 96 17.7 30.6 0.00 0.00 0.00 41 1009.1
20260904214549 37 113 12.9 30.6 0.00 0.00 0.00 40 1009.2
20260904214024 37 95 17.7 30.6 0.00 0.00 0.00 41 1009.2
20260904213524 37 100 17.7 27.4 0.00 0.00 0.00 42 1009.2
20260904213045 38 103 14.5 25.7 0.00 0.00 0.00 41 1009.2
20260904212524 37 142 14.5 30.6 0.00 0.00 0.00 41 1009.3
20260904212023 37 117 16.1 30.6 0.00 0.00 0.00 41 1009.4
20260904211545 37 105 16.1 30.6 0.00 0.00 0.00 40 1009.5
20260904211025 37 119 16.1 29.0 0.00 0.00 0.00 41 1009.4
20260904210526 37 108 17.7 29.0 0.00 0.00 0.00 42 1009.5
20260904210052 37 100 19.3 27.4 0.00 0.00 0.00 40 1009.6
20260904205525 37 117 11.3 29.0 0.00 0.00 0.00 41 1009.6
20260904205026 37 105 12.9 29.0 0.00 0.00 0.00 41 1009.6
20260904204545 37 99 19.3 29.0 0.00 0.00 0.00 41 1009.7
20260904204025 37 146 11.3 29.0 0.00 0.00 0.00 42 1009.7
20260904203524 37 114 17.7 29.0 0.00 0.00 0.00 42 1009.8
20260904203047 37 101 17.7 27.4 0.00 0.00 0.00 41 1009.9
20260904202525 37 96 16.1 27.4 0.00 0.00 0.00 42 1009.8
20260904202025 37 94 14.5 32.2 0.00 0.00 0.00 42 1009.7
20260904201558 37 95 20.9 32.2 0.00 0.00 0.00 42 1009.7
20260904201024 37 101 19.3 29.0 0.00 0.00 0.00 43 1009.7
20260904200524 37 94 19.3 30.6 0.00 0.00 0.00 42 1009.7
20260904200044 37 109 17.7 32.2 0.00 0.00 0.00 43 1009.9
20260904195526 37 94 12.9 32.2 0.00 0.00 0.00 44 1009.9
20260904195023 37 96 16.1 24.1 0.00 0.00 0.00 43 1010.0
20260904194559 37 92 16.1 30.6 0.00 0.00 0.00 43 1010.0
20260904194025 37 124 17.7 32.2 0.00 0.00 0.00 44 1010.0
20260904193525 37 126 19.3 32.2 0.00 0.00 0.00 45 1009.9
20260904193041 36 101 22.5 32.2 0.00 0.00 0.00 45 1010.0
20260904192523 36 84 20.9 32.2 0.00 0.00 0.00 44 1010.1
20260904192028 36 87 16.1 45.1 0.00 0.00 0.00 45 1010.0
20260904191544 37 95 19.3 45.1 0.00 0.00 0.00 44 1010.1
20260904191021 37 94 22.5 30.6 0.00 0.00 0.00 43 1010.0
20260904190524 37 116 19.3 30.6 0.00 0.00 0.00 45 1010.1
20260904190045 36 115 14.5 30.6 0.00 0.00 0.00 45 1010.3
20260904185524 36 104 17.7 29.0 0.00 0.00 0.00 47 1010.4
20260904185023 36 86 17.7 33.8 0.00 0.00 0.00 46 1010.3
20260904184542 37 137 19.3 33.8 0.00 0.00 0.00 45 1010.5
20260904184022 36 99 17.7 33.8 0.00 0.00 0.00 46 1010.5
20260904183521 36 126 12.9 32.2 0.00 0.00 0.00 46 1010.6
20260904183046 37 111 11.3 35.4 0.00 0.00 0.00 46 1010.7
20260904182524 36 126 14.5 35.4 0.00 0.00 0.00 46 1010.8
20260904182028 36 123 19.3 35.4 0.00 0.00 0.00 46 1010.8
20260904181545 36 100 14.5 32.2 0.00 0.00 0.00 47 1010.8
20260904181024 36 131 19.3 32.2 0.00 0.00 0.00 47 1010.9
20260904180523 36 125 12.9 25.7 0.00 0.00 0.00 46 1010.9
20260904180044 36 127 16.1 32.2 0.00 0.00 0.00 47 1011.0
20260904175524 36 110 14.5 32.2 0.00 0.00 0.00 48 1011.0
20260904175024 35 111 16.1 29.0 0.00 0.00 0.00 48 1011.0
20260904174550 35 146 17.7 29.0 0.00 0.00 0.00 48 1011.2
20260904174025 35 100 16.1 27.4 0.00 0.00 0.00 48 1011.1
20260904173523 35 118 12.9 20.9 0.00 0.00 0.00 49 1011.1
20260904173103 35 111 12.9 30.6 0.00 0.00 0.00 49 1011.3
20260904172524 35 117 17.7 30.6 0.00 0.00 0.00 49 1011.3
20260904172024 35 150 12.9 24.1 0.00 0.00 0.00 50 1011.3
20260904171552 35 141 9.7 24.1 0.00 0.00 0.00 51 1011.4
20260904171026 35 110 14.5 29.0 0.00 0.00 0.00 50 1011.4
20260904170525 34 102 16.1 29.0 0.00 0.00 0.00 50 1011.5
20260904170047 34 120 14.5 27.4 0.00 0.00 0.00 51 1011.5
20260904165525 34 81 12.9 29.0 0.00 0.00 0.00 52 1011.7
20260904165024 33 131 11.3 32.2 0.00 0.00 0.00 51 1011.7
20260904164553 34 113 19.3 32.2 0.00 0.00 0.00 52 1011.7
20260904164025 33 107 17.7 30.6 0.00 0.00 0.00 52 1011.6
20260904163524 33 105 14.5 25.7 0.00 0.00 0.00 53 1011.7
20260904163043 33 101 12.9 25.7 0.00 0.00 0.00 53 1011.6
20260904162524 33 132 19.3 25.7 0.00 0.00 0.00 53 1011.6
20260904162025 33 135 14.5 25.7 0.00 0.00 0.00 54 1011.5
20260904161542 33 126 11.3 25.7 0.00 0.00 0.00 55 1011.5
20260904161025 33 113 16.1 25.7 0.00 0.00 0.00 54 1011.7
20260904160523 32 128 11.3 22.5 0.00 0.00 0.00 55 1011.5
20260904160046 32 140 9.7 22.5 0.00 0.00 0.00 56 1011.5
20260904155525 32 138 9.7 22.5 0.00 0.00 0.00 56 1011.6
20260904155024 32 149 14.5 24.1 0.00 0.00 0.00 56 1011.5
20260904154544 32 114 12.9 24.1 0.00 0.00 0.00 57 1011.6
20260904154028 32 113 12.9 24.1 0.00 0.00 0.00 57 1011.6
20260904153524 31 138 14.5 24.1 0.00 0.00 0.00 57 1011.8
20260904153043 31 110 12.9 24.1 0.00 0.00 0.00 58 1011.7
20260904152524 31 123 16.1 25.7 0.00 0.00 0.00 58 1011.8
20260904152024 31 146 14.5 27.4 0.00 0.00 0.00 59 1011.8
20260904151548 31 146 17.7 27.4 0.00 0.00 0.00 59 1011.9
20260904151028 31 146 12.9 29.0 0.00 0.00 0.00 59 1011.9